• en France
  • Liste des pays
  • À 7 jours
  • Température de l'eau
  • Carte satellitaire
  • Carte météo
  • Widgets météo
  • user-avatar
    Se connecter

    Météo par heure à Suharevo

    Ce jour, 22 Septembre, Samedi

    Heure Température Précipitation Vent Pression Humidité
    00:00 +19°C° 0 mm 4 m/s 753 mmHg 80%
    01:00 +18°C° 0 mm 4 m/s 752 mmHg 78%
    02:00 +19°C° 0 mm 4 m/s 751 mmHg 77%
    03:00 +19°C° 0 mm 5 m/s 751 mmHg 75%
    04:00 +19°C° 0 mm 5 m/s 750 mmHg 73%
    05:00 +17°C° 0 mm 5 m/s 750 mmHg 71%
    06:00 +19°C° 0 mm 5 m/s 749 mmHg 70%
    07:00 +19°C° 0 mm 5 m/s 749 mmHg 69%
    08:00 +19°C° 0 mm 6 m/s 749 mmHg 67%
    09:00 +20°C° 0.1 mm 6 m/s 749 mmHg 68%
    10:00 +20°C° 0.1 mm 6 m/s 749 mmHg 68%
    11:00 +20°C° 0.1 mm 6 m/s 749 mmHg 69%
    12:00 +17°C° 0.7 mm 5 m/s 749 mmHg 76%
    13:00 +15°C° 0.7 mm 4 m/s 750 mmHg 83%
    14:00 +12°C° 0.7 mm 3 m/s 750 mmHg 90%
    15:00 +12°C° 0.4 mm 3 m/s 750 mmHg 90%
    16:00 +12°C° 0.4 mm 3 m/s 751 mmHg 91%
    17:00 +12°C° 0.4 mm 3 m/s 751 mmHg 92%
    18:00 +12°C° 0.3 mm 3 m/s 751 mmHg 91%
    19:00 +12°C° 0.3 mm 3 m/s 751 mmHg 90%
    20:00 +11°C° 0.3 mm 4 m/s 751 mmHg 90%
    21:00 +11°C° 0.2 mm 3 m/s 751 mmHg 90%
    22:00 +11°C° 0.2 mm 3 m/s 751 mmHg 90%
    23:00 +11°C° 0.2 mm 3 m/s 751 mmHg 90%

    Demain, 23 Septembre, Dimanche

    Heure Température Précipitation Vent Pression Humidité
    00:00 +10°C° 0 mm 3 m/s 751 mmHg 91%
    01:00 +10°C° 0 mm 3 m/s 751 mmHg 92%
    02:00 +9°C° 0 mm 3 m/s 751 mmHg 92%
    03:00 +9°C° 0 mm 3 m/s 750 mmHg 93%
    04:00 +8°C° 0 mm 3 m/s 750 mmHg 94%
    05:00 +8°C° 0 mm 3 m/s 750 mmHg 94%
    06:00 +8°C° 0 mm 4 m/s 750 mmHg 92%
    07:00 +8°C° 0 mm 4 m/s 749 mmHg 90%
    08:00 +10°C° 0 mm 4 m/s 749 mmHg 88%
    09:00 +10°C° 0.1 mm 4 m/s 749 mmHg 84%
    10:00 +10°C° 0.1 mm 5 m/s 749 mmHg 80%
    11:00 +10°C° 0.1 mm 5 m/s 749 mmHg 76%
    12:00 +12°C° 0.2 mm 5 m/s 749 mmHg 74%
    13:00 +12°C° 0.2 mm 5 m/s 749 mmHg 71%
    14:00 +13°C° 0.2 mm 5 m/s 749 mmHg 69%
    15:00 +12°C° 0.1 mm 5 m/s 749 mmHg 72%
    16:00 +12°C° 0.1 mm 4 m/s 748 mmHg 74%
    17:00 +12°C° 0.1 mm 3 m/s 748 mmHg 77%
    18:00 +11°C° 0.2 mm 3 m/s 748 mmHg 81%
    19:00 +10°C° 0.2 mm 3 m/s 748 mmHg 85%
    20:00 +9°C° 0.2 mm 3 m/s 748 mmHg 88%
    21:00 +9°C° 0 mm 3 m/s 748 mmHg 90%
    22:00 +9°C° 0 mm 3 m/s 748 mmHg 91%
    23:00 +8°C° 0 mm 3 m/s 748 mmHg 92%

    Après-demain, 24 Septembre, Lundi

    Heure Température Précipitation Vent Pression Humidité
    00:00 +8°C° 0 mm 3 m/s 748 mmHg 93%
    01:00 +8°C° 0 mm 3 m/s 748 mmHg 94%
    02:00 +7°C° 0 mm 3 m/s 748 mmHg 95%
    03:00 +7°C° 0 mm 3 m/s 748 mmHg 96%
    04:00 +7°C° 0 mm 3 m/s 748 mmHg 96%
    05:00 +7°C° 0 mm 2 m/s 748 mmHg 96%
    06:00 +7°C° 0 mm 2 m/s 748 mmHg 95%
    07:00 +8°C° 0 mm 2 m/s 748 mmHg 93%
    08:00 +8°C° 0 mm 2 m/s 749 mmHg 91%
    09:00 +10°C° 0.1 mm 1 m/s 748 mmHg 88%
    10:00 +11°C° 0.1 mm 1 m/s 748 mmHg 84%
    11:00 +11°C° 0.1 mm 0 m/s 748 mmHg 80%
    12:00 +12°C° 0.2 mm 1 m/s 748 mmHg 79%
    13:00 +12°C° 0.2 mm 1 m/s 748 mmHg 78%
    14:00 +12°C° 0.2 mm 2 m/s 748 mmHg 77%
    15:00 +12°C° 0.2 mm 2 m/s 748 mmHg 80%
    16:00 +10°C° 0.2 mm 2 m/s 748 mmHg 82%
    17:00 +10°C° 0.2 mm 2 m/s 748 mmHg 84%
    18:00 +9°C° 0.3 mm 3 m/s 749 mmHg 85%
    19:00 +7°C° 0.3 mm 4 m/s 749 mmHg 85%
    20:00 +7°C° 0.3 mm 4 m/s 749 mmHg 86%
    21:00 +6°C° 0.1 mm 4 m/s 749 mmHg 85%
    22:00 +6°C° 0.1 mm 4 m/s 749 mmHg 85%
    23:00 +5°C° 0.1 mm 4 m/s 749 mmHg 84%

    25 Septembre, Mardi

    Heure Température Précipitation Vent Pression Humidité
    00:00 +5°C° 0 mm 4 m/s 750 mmHg 84%
    01:00 +5°C° 0 mm 4 m/s 750 mmHg 85%
    02:00 +4°C° 0 mm 4 m/s 750 mmHg 85%
    03:00 +4°C° 0 mm 4 m/s 751 mmHg 85%
    04:00 +4°C° 0 mm 4 m/s 751 mmHg 85%
    05:00 +4°C° 0 mm 4 m/s 752 mmHg 86%
    06:00 +5°C° 0 mm 5 m/s 752 mmHg 83%
    07:00 +5°C° 0 mm 5 m/s 753 mmHg 80%
    08:00 +6°C° 0 mm 5 m/s 753 mmHg 76%
    09:00 +7°C° 0.1 mm 6 m/s 754 mmHg 71%
    10:00 +7°C° 0.1 mm 6 m/s 754 mmHg 66%
    11:00 +8°C° 0.1 mm 6 m/s 755 mmHg 60%
    12:00 +8°C° 0.1 mm 7 m/s 755 mmHg 57%
    13:00 +9°C° 0.1 mm 7 m/s 756 mmHg 53%
    14:00 +9°C° 0.1 mm 7 m/s 756 mmHg 50%
    15:00 +8°C° 0 mm 6 m/s 757 mmHg 51%
    16:00 +7°C° 0 mm 5 m/s 757 mmHg 53%
    17:00 +7°C° 0 mm 4 m/s 758 mmHg 54%
    18:00 +7°C° 0 mm 3 m/s 758 mmHg 59%
    19:00 +5°C° 0 mm 3 m/s 759 mmHg 63%
    20:00 +4°C° 0 mm 3 m/s 759 mmHg 68%
    21:00 +5°C° 0 mm 3 m/s 759 mmHg 68%
    22:00 +5°C° 0 mm 3 m/s 758 mmHg 68%
    23:00 +6°C° 0 mm 4 m/s 758 mmHg 68%

    26 Septembre, Mercredi

    Heure Température Précipitation Vent Pression Humidité
    00:00 +6°C° 0.1 mm 4 m/s 758 mmHg 71%
    01:00 +6°C° 0.1 mm 4 m/s 757 mmHg 75%
    02:00 +6°C° 0.1 mm 4 m/s 757 mmHg 79%
    03:00 +6°C° 0.3 mm 4 m/s 757 mmHg 83%
    04:00 +6°C° 0.3 mm 4 m/s 756 mmHg 87%
    05:00 +6°C° 0.3 mm 4 m/s 756 mmHg 92%
    06:00 +7°C° 1.2 mm 3 m/s 756 mmHg 93%
    07:00 +7°C° 1.2 mm 3 m/s 755 mmHg 94%
    08:00 +7°C° 1.2 mm 2 m/s 755 mmHg 96%
    09:00 +7°C° 1.1 mm 2 m/s 754 mmHg 95%
    10:00 +7°C° 1.1 mm 2 m/s 754 mmHg 95%
    11:00 +8°C° 1.1 mm 2 m/s 754 mmHg 95%
    12:00 +8°C° 0.8 mm 2 m/s 753 mmHg 94%
    13:00 +8°C° 0.8 mm 3 m/s 753 mmHg 93%
    14:00 +8°C° 0.8 mm 3 m/s 753 mmHg 92%
    15:00 +8°C° 0.8 mm 4 m/s 752 mmHg 92%
    16:00 +8°C° 0.8 mm 4 m/s 751 mmHg 92%
    17:00 +8°C° 0.8 mm 4 m/s 750 mmHg 93%
    18:00 +8°C° 1.3 mm 5 m/s 749 mmHg 93%
    19:00 +9°C° 1.3 mm 5 m/s 748 mmHg 93%
    20:00 +9°C° 1.3 mm 6 m/s 747 mmHg 92%
    21:00 +9°C° 0.9 mm 6 m/s 746 mmHg 92%
    22:00 +10°C° 0.9 mm 6 m/s 745 mmHg 91%
    23:00 +10°C° 0.9 mm 6 m/s 744 mmHg 91%

    27 Septembre, Jeudi

    Heure Température Précipitation Vent Pression Humidité
    00:00 +11°C° 0.2 mm 6 m/s 744 mmHg 91%
    01:00 +12°C° 0.2 mm 5 m/s 744 mmHg 91%
    02:00 +12°C° 0.2 mm 5 m/s 744 mmHg 91%
    03:00 +10°C° 0.2 mm 5 m/s 744 mmHg 90%
    04:00 +9°C° 0.2 mm 5 m/s 744 mmHg 90%
    05:00 +10°C° 0.2 mm 4 m/s 745 mmHg 89%
    06:00 +10°C° 0 mm 4 m/s 745 mmHg 87%
    07:00 +8°C° 0 mm 4 m/s 745 mmHg 86%
    08:00 +9°C° 0 mm 3 m/s 745 mmHg 84%
    09:00 +10°C° 0.1 mm 3 m/s 745 mmHg 80%
    10:00 +11°C° 0.1 mm 3 m/s 745 mmHg 76%
    11:00 +12°C° 0.1 mm 3 m/s 744 mmHg 72%
    12:00 +11°C° 0.7 mm 4 m/s 744 mmHg 76%
    13:00 +11°C° 0.7 mm 4 m/s 743 mmHg 80%
    14:00 +11°C° 0.7 mm 4 m/s 743 mmHg 84%
    15:00 +11°C° 0.2 mm 4 m/s 743 mmHg 83%
    16:00 +10°C° 0.2 mm 4 m/s 742 mmHg 82%
    17:00 +10°C° 0.2 mm 4 m/s 742 mmHg 81%
    18:00 +10°C° 0.2 mm 4 m/s 742 mmHg 83%
    19:00 +8°C° 0.2 mm 4 m/s 742 mmHg 86%
    20:00 +9°C° 0.2 mm 3 m/s 742 mmHg 88%
    21:00 +7°C° 0.1 mm 4 m/s 742 mmHg 88%
    22:00 +7°C° 0.1 mm 4 m/s 742 mmHg 88%
    23:00 +7°C° 0.1 mm 4 m/s 741 mmHg 89%
    Voir plus